This is the latest recevied weather packets stored in our database for station/object KB1WCR. If no packets are shown the sender has not sent any weather packets the latest 10 day(s).
| Time | Temp. | Humidity | Pressure | Rain* | Wind** | Luminosity | Snow |
|---|---|---|---|---|---|---|---|
| 1788187180 | 21.11° C | 58% | 1021 hPa | 0 mm | - | 612 W/m² | - |
| 1788186875 | 20.56° C | 58% | 1020.9 hPa | 0 mm | - | 602 W/m² | - |
| 1788186570 | 20.56° C | 60% | 1021 hPa | 0 mm | - | 592 W/m² | - |
| 1788186266 | 20.56° C | 57% | 1020.8 hPa | 0 mm | - | 582 W/m² | - |
| 1788185960 | 20.56° C | 57% | 1020.8 hPa | 0 mm | - | 574 W/m² | - |
| 1788185655 | 20° C | 55% | 1020.7 hPa | 0 mm | - | 564 W/m² | - |
| 1788185350 | 20° C | 57% | 1021 hPa | 0 mm | - | 552 W/m² | - |
| 1788185044 | 20° C | 58% | 1021 hPa | 0 mm | - | 542 W/m² | - |
| 1788184742 | 20° C | 57% | 1020.9 hPa | 0 mm | - | 527 W/m² | - |
| 1788184436 | 20° C | 60% | 1021.1 hPa | 0 mm | - | 521 W/m² | - |
| 1788184132 | 20° C | 58% | 1021 hPa | 0 mm | - | 507 W/m² | - |
| 1788183829 | 20° C | 60% | 1021.2 hPa | 0 mm | - | 495 W/m² | - |
| 1788183528 | 20° C | 59% | 1020.9 hPa | 0 mm | - | 482 W/m² | - |
| 1788183223 | 19.44° C | 64% | 1020.8 hPa | 0 mm | - | 470 W/m² | - |
| 1788182918 | 20° C | 62% | 1020.9 hPa | 0 mm | - | 456 W/m² | - |
| 1788182612 | 19.44° C | 64% | 1020.6 hPa | 0 mm | - | 442 W/m² | - |
| 1788182307 | 19.44° C | 63% | 1020.7 hPa | 0 mm | - | 429 W/m² | - |
| 1788182003 | 19.44° C | 66% | 1020.7 hPa | 0 mm | - | 414 W/m² | - |
| 1788181698 | 18.89° C | 68% | 1020.6 hPa | 0 mm | - | 402 W/m² | - |
| 1788181394 | 18.89° C | 69% | 1020.5 hPa | 0 mm | - | 389 W/m² | - |
| 1788181093 | 18.89° C | 69% | 1020.7 hPa | 0 mm | - | 374 W/m² | - |
| 1788180788 | 18.89° C | 71% | 1020.8 hPa | 0 mm | - | 358 W/m² | - |
| 1788180488 | 18.33° C | 72% | 1020.6 hPa | 0 mm | - | 345 W/m² | - |
| 1788180184 | 18.33° C | 72% | 1020.4 hPa | 0 mm | - | 330 W/m² | - |
| 1788179884 | 18.33° C | 74% | 1020.5 hPa | 0 mm | - | 315 W/m² | - |
* Rain latest hour (hover to see other rain measurements)
** Current wind speed in m/s (hover to see current wind gust speed)